Theta_e
282 283 280 278 274 274 272 272 273 277 275 274 275 275 274 279 284 286 286 284 280 284 284 286 285 285 286 286 287 286 285 284 284 284 285 284 284 283 283 283 283 283 282 282
269 279 275 272 277 277 275 273 275 277 276 275 275 282 274 275 281 281 282 285 285 285 285 284 284 284 284 284 284 285 284 283 284 283 283 283 282 281 281 281 281 281 280 280
269 276 274 267 270 274 272 271 275 269 273 274 271 272 272 277 282 281 284 286 285 285 284 284 284 284 282 283 284 283 282 283 283 282 281 281 281 280 280 279 280 279 279 279
267 272 261 271 275 271 272 269 271 271 271 272 271 275 282 284 283 281 285 285 285 284 284 284 284 283 282 282 282 282 281 280 281 280 280 280 279 279 279 279 278 278 278 279
265 268 273 276 277 273 270 271 274 271 271 272 275 276 277 283 285 283 285 285 284 280 280 282 281 281 281 280 281 280 279 279 279 279 278 278 278 278 277 277 278 277 278 278
269 263 263 273 279 283 276 266 277 272 271 271 272 266 272 278 284 284 285 285 283 280 281 281 281 281 280 280 279 278 279 278 278 278 278 277 277 277 278 277 278 278 278 277
272 268 271 277 279 281 266 267 278 276 273 270 271 275 275 280 284 284 284 283 282 282 281 281 281 281 280 279 277 278 278 278 278 278 277 277 276 277 277 276 277 275 277 276
270 266 266 281 279 272 276 280 279 277 275 273 277 278 277 282 283 283 283 283 280 279 276 275 276 276 276 276 277 276 276 276 276 276 276 277 276 276 276 275 273 273 275 276
272 272 278 281 279 280 280 277 277 275 276 276 278 278 280 278 281 282 280 277 278 277 273 271 269 270 271 273 274 274 274 274 274 275 276 276 275 275 274 274 272 273 275 274
272 275 274 277 279 280 280 278 277 278 278 280 277 279 279 279 283 281 278 275 275 275 272 267 266 270 271 271 273 273 272 272 273 272 274 274 276 276 274 271 271 275 274 274
271 271 274 276 278 278 279 279 279 280 280 280 280 280 279 278 282 281 276 275 273 273 272 270 267 266 266 269 271 271 272 271 272 273 272 272 274 273 274 274 274 268 269 273
265 270 267 273 276 278 276 277 278 278 278 277 278 281 280 283 281 278 275 272 270 269 269 266 264 263 262 263 269 268 271 272 271 270 269 272 271 272 279 279 280 281 281 279
267 271 271 273 277 276 274 274 276 277 272 270 272 274 277 280 278 278 272 270 268 266 265 265 263 261 260 261 263 267 267 271 271 274 271 268 270 269 268 274 279 280 281 281
270 268 270 270 270 271 271 271 273 270 270 268 267 269 272 273 272 270 269 268 267 265 263 263 262 261 261 262 262 262 266 273 268 268 270 272 270 269 270 269 269 271 277 279
266 268 268 270 269 268 268 268 267 265 266 266 266 266 267 267 266 266 267 268 267 265 263 261 260 260 260 260 261 260 261 265 269 270 272 270 271 271 271 272 272 271 273 276
263 264 264 263 266 266 265 265 264 263 264 264 264 264 266 266 266 266 266 267 267 265 266 265 264 263 261 261 261 262 265 271 273 270 271 272 273 271 270 270 270 270 271 272
258 258 261 262 263 263 264 264 263 263 264 264 264 264 263 266 264 264 265 266 266 266 266 266 266 267 267 266 265 267 269 269 272 272 271 271 270 269 270 269 268 269 270 274
261 261 260 261 260 258 259 260 260 261 261 261 263 263 263 263 262 263 263 265 265 267 268 268 268 269 268 267 267 268 268 268 269 268 269 270 270 270 269 269 270 268 268 271
257 258 259 258 256 258 257 257 258 258 257 258 260 260 262 261 262 262 263 264 265 265 264 267 270 270 269 269 271 270 269 269 269 269 270 271 269 268 268 268 268 268 268 268
256 255 256 257 259 258 257 257 257 260 259 259 259 260 259 259 259 261 262 262 262 261 266 266 268 267 267 268 270 269 268 268 266 266 266 266 266 266 266 267 267 266 266 266
256 257 258 259 259 260 261 258 258 257 259 259 259 259 258 259 262 261 260 259 262 262 267 267 266 267 266 268 269 268 265 263 262 262 261 261 262 261 261 261 262 263 263 263
257 257 258 259 258 258 258 258 258 259 260 258 259 260 258 260 260 261 263 260 262 267 266 264 265 266 268 268 262 263 262 261 258 256 256 258 258 257 256 255 257 260 261 262
257 258 257 255 255 256 257 259 258 258 258 260 259 259 258 258 259 256 257 262 264 265 266 263 266 269 270 264 261 258 255 253 252 251 251 252 255 252 253 258 259 261 259 259
257 256 256 258 256 257 257 259 258 257 258 260 262 262 260 257 258 260 262 264 266 265 265 265 266 269 269 263 257 252 251 251 250 250 252 262 254 252 253 251 255 258 259 260
255 255 256 255 256 258 258 259 257 257 259 259 262 262 261 260 258 260 260 262 265 264 263 265 267 268 262 256 253 252 251 250 251 257 258 256 255 253 254 255 258 256 258 260
254 255 255 257 258 258 258 258 256 259 260 258 258 260 260 261 262 262 259 263 262 263 260 260 260 260 260 259 258 255 255 253 256 252 256 255 253 254 257 258 254 257 258 258
256 261 255 257 259 259 258 257 259 257 258 257 257 260 261 261 260 262 263 258 260 260 260 260 259 260 259 258 259 259 255 252 259 257 260 256 252 253 255 256 257 258 259 259
Wind_Speed
6 7 3 7 6 6 8 6 7 12 10 3 2 3 4 4 5 8 3 3 2 1 5 7 9 9 8 8 7 7 8 8 7 8 7 6 5 5 5 5 5 5 3 3
5 10 6 7 8 12 9 6 9 12 14 5 3 1 3 3 6 7 4 6 5 4 4 7 7 8 8 7 7 7 7 6 5 6 6 5 5 5 5 5 5 5 3 3
6 3 5 9 12 12 5 5 9 5 8 2 2 2 3 5 6 6 7 4 7 8 7 7 8 8 8 7 7 8 6 5 4 5 4 4 4 4 3 3 4 4 4 4
5 3 3 10 1 4 9 5 4 0 3 4 5 3 6 7 8 8 3 2 5 6 8 8 8 8 7 6 6 6 5 5 5 4 4 4 4 4 3 2 3 3 3 3
3 5 7 3 5 5 7 8 7 6 2 2 1 3 8 10 6 7 4 4 5 5 6 8 9 9 8 6 5 5 5 5 5 4 4 4 3 3 2 2 2 2 2 2
2 3 7 3 4 6 4 5 1 6 3 3 2 2 6 3 5 6 4 7 9 8 8 8 8 8 8 6 5 5 6 5 5 5 4 4 3 2 1 2 3 1 1 2
8 7 8 2 5 3 7 8 2 3 5 3 4 7 4 1 5 6 5 7 8 9 9 8 7 7 7 6 5 4 4 4 4 4 3 2 2 2 2 3 2 1 2 2
3 4 8 5 4 6 4 4 4 3 3 4 7 7 5 6 7 7 8 9 8 8 7 5 4 4 4 5 5 5 4 4 4 4 3 2 3 3 3 3 2 3 3 4
3 3 1 3 4 4 5 3 4 3 4 4 7 6 6 7 7 9 8 6 6 8 8 4 4 3 5 3 4 4 5 4 3 3 3 3 3 3 2 4 3 3 3 3
5 3 1 1 7 9 7 5 2 3 6 6 8 8 8 7 8 9 9 8 5 9 8 6 3 4 3 3 3 3 2 2 2 2 3 4 4 4 3 3 3 3 3 2
6 6 10 6 11 13 11 8 10 11 9 12 12 13 9 7 9 9 9 7 6 7 7 7 6 5 4 3 0 2 2 2 3 4 4 3 3 3 2 3 4 3 3 2
3 5 3 7 12 12 12 12 13 13 13 12 14 16 9 10 6 8 7 6 5 4 6 5 5 5 3 2 3 3 3 4 4 3 2 3 3 2 7 10 12 13 13 10
4 10 11 14 7 15 11 13 13 10 10 12 13 13 12 4 2 6 6 6 6 6 5 6 5 3 3 4 3 2 3 4 2 4 2 2 2 2 2 4 9 10 12 13
8 8 2 11 9 12 12 14 11 10 9 9 10 11 11 9 11 11 9 5 5 5 5 3 3 3 3 4 4 3 3 8 2 2 2 2 2 2 2 2 2 2 6 8
8 5 3 5 7 10 9 10 10 10 9 10 8 9 11 10 9 7 6 6 5 4 4 3 0 2 3 4 4 3 2 3 3 2 1 4 3 3 3 4 4 3 2 6
7 3 6 6 7 7 8 10 8 8 8 8 8 9 7 5 6 7 7 7 4 3 2 2 1 1 2 3 2 1 3 10 8 3 4 4 4 3 2 3 3 3 2 2
5 5 4 6 7 7 7 6 6 6 7 9 8 7 7 7 5 5 5 5 4 3 2 1 1 0 2 3 3 3 3 1 8 4 3 3 2 3 3 2 2 3 3 4
2 1 2 3 3 4 4 4 4 5 6 7 6 5 5 6 5 5 5 5 4 3 3 4 4 5 5 4 4 3 2 3 4 4 4 4 4 3 2 1 2 2 2 5
4 4 3 2 1 2 2 4 5 4 5 5 6 5 4 4 5 4 5 6 4 5 6 6 11 8 3 3 6 4 5 5 5 5 5 6 2 4 3 4 5 5 5 6
4 4 5 4 2 1 2 3 4 5 3 4 5 4 4 5 4 4 5 5 3 2 5 7 6 5 5 6 11 4 4 1 2 3 2 1 2 3 4 9 9 7 5 5
3 4 4 4 5 5 1 1 3 4 5 3 4 3 3 6 5 3 3 3 4 7 6 11 7 3 4 9 8 2 4 4 3 3 2 3 4 3 4 5 5 6 6 6
1 2 4 5 5 5 5 4 1 3 5 3 4 3 3 6 6 6 7 2 2 12 6 2 2 11 9 7 4 4 3 2 1 2 2 3 3 3 3 3 5 6 7 7
2 2 3 4 4 6 6 6 2 2 3 5 3 4 2 2 4 2 4 6 5 8 6 2 12 16 18 5 2 2 2 2 3 3 3 3 4 3 4 6 7 7 5 7
2 3 3 4 4 4 6 5 1 2 5 6 6 4 1 2 3 3 6 11 16 14 7 8 13 18 12 3 1 2 2 3 3 4 4 12 3 3 4 3 6 8 8 10
3 3 4 4 4 4 3 4 3 5 5 3 4 2 3 3 3 5 4 5 13 12 6 12 17 18 5 2 2 2 3 3 4 6 4 3 3 5 5 5 8 7 8 9
3 3 3 6 5 4 3 2 3 4 4 2 2 2 4 4 6 5 3 10 6 9 3 4 4 6 5 4 4 4 4 4 5 4 7 4 4 5 7 7 5 8 9 9
3 7 1 4 3 2 2 4 5 3 3 2 4 6 7 5 5 8 10 3 5 7 6 4 5 8 6 5 6 6 4 3 8 5 6 3 3 5 7 7 7 8 9 9
Wind_Direction
293 316 321 200 192 185 191 215 216 269 279 266 309 293 258 279 330 330 309 305 6 7 95 98 98 100 100 96 87 82 87 95 92 78 85 94 96 111 116 112 113 108 102 117
291 255 246 263 238 221 211 221 264 271 280 182 245 29 341 337 345 324 280 202 196 176 152 137 135 131 126 123 119 116 116 116 117 121 144 140 145 136 136 139 141 135 158 137
262 91 357 316 225 209 184 197 185 194 224 167 279 333 302 320 314 305 310 245 191 188 169 146 137 130 124 122 123 120 119 120 141 151 148 151 136 139 152 163 144 155 162 164
250 27 308 244 116 147 176 222 214 193 202 183 195 242 273 250 268 281 271 199 164 157 148 137 127 117 115 119 121 118 121 152 153 144 151 159 160 163 172 162 176 172 174 175
179 211 276 207 203 168 148 270 203 177 141 223 178 319 283 240 204 254 249 163 153 140 133 127 126 127 127 132 131 133 155 162 152 159 154 187 162 190 200 160 186 194 177 196
346 212 239 218 128 113 103 295 41 113 174 214 110 19 262 169 199 233 199 158 154 145 139 136 144 143 143 148 152 178 180 156 149 159 169 184 191 195 204 155 201 164 246 238
239 262 286 65 124 139 91 246 156 156 223 235 189 210 228 237 255 238 205 170 152 152 154 151 145 147 151 155 176 144 128 146 155 158 175 186 196 181 185 215 214 236 257 261
195 252 268 131 57 125 204 19 9 352 287 260 256 272 232 209 249 216 190 176 157 146 135 113 110 125 142 142 127 124 162 173 169 168 185 184 210 220 201 216 208 224 246 255
185 219 188 204 84 35 41 42 359 356 291 268 283 272 267 245 218 190 182 157 149 149 138 132 134 119 135 151 122 168 187 188 180 185 192 191 210 218 218 211 186 222 220 210
38 38 82 271 48 44 30 5 303 279 301 312 286 267 260 255 216 188 172 171 154 146 156 156 149 128 130 127 155 176 166 164 185 164 217 212 213 211 195 197 196 204 208 210
271 4 344 66 40 7 6 6 357 343 331 321 310 299 269 257 220 184 164 156 161 167 161 159 152 160 179 170 6 200 208 189 238 203 212 202 204 201 209 227 193 185 209 183
239 51 272 288 350 5 356 352 348 339 333 346 331 304 283 276 191 158 157 143 153 152 132 138 148 156 144 160 222 214 235 202 213 204 206 203 199 248 255 241 243 250 242 225
282 337 292 294 339 13 4 358 344 3 14 344 340 346 342 324 99 144 119 134 147 150 140 142 144 158 211 191 178 232 243 272 191 183 206 208 218 193 211 278 269 257 255 257
18 342 354 26 346 5 3 351 18 23 16 14 0 357 356 24 41 38 28 46 76 102 101 115 136 184 225 172 160 208 264 254 178 252 228 197 202 239 227 208 227 249 279 280
357 340 276 340 16 12 8 2 25 18 1 10 13 18 17 20 36 47 52 46 62 64 74 81 137 279 181 141 151 181 224 263 259 229 257 239 229 232 237 252 247 233 247 278
318 32 7 27 17 15 11 13 19 8 2 0 8 9 10 35 43 39 29 19 17 50 75 66 334 263 139 139 178 228 240 248 238 205 236 250 251 244 248 242 245 246 249 252
29 358 353 14 12 12 20 7 3 358 356 1 4 3 9 11 35 31 25 11 3 358 347 345 352 89 219 212 223 243 244 275 278 278 254 255 235 250 249 235 242 250 246 279
32 78 37 9 356 6 349 358 346 352 349 332 339 356 20 21 8 3 355 339 337 332 48 25 319 262 219 223 218 243 261 254 252 251 251 256 253 248 243 302 318 306 290 293
36 19 0 72 36 16 345 341 332 321 339 341 350 352 0 15 346 352 336 337 350 10 13 339 323 5 21 314 286 243 242 240 254 246 240 257 334 358 333 316 301 295 298 295
20 356 355 336 338 47 323 306 320 326 322 351 339 5 2 339 324 335 326 325 79 266 302 313 336 340 324 308 307 291 264 294 48 35 8 39 359 325 310 299 295 294 292 288
19 336 332 334 330 323 301 319 335 321 312 5 344 337 337 322 316 318 346 347 338 323 323 354 334 343 312 302 290 283 68 52 39 16 332 293 297 290 276 273 277 278 278 276
322 328 324 333 327 314 320 298 344 342 322 341 328 348 355 337 338 327 329 293 282 317 335 323 347 302 299 32 57 63 51 25 332 298 278 270 263 259 265 268 274 277 274 273
303 285 303 312 290 283 302 293 244 311 326 309 283 288 284 268 305 321 313 306 300 284 307 336 296 315 311 84 66 74 55 341 286 270 265 257 249 240 245 267 266 270 269 283
286 290 284 282 286 292 291 282 236 287 271 283 282 282 257 286 294 281 304 315 319 308 298 312 301 297 320 53 223 177 215 240 255 258 256 283 251 247 258 258 277 276 272 281
266 266 266 282 285 288 317 324 315 288 280 284 300 321 307 260 227 276 266 279 304 311 293 295 306 316 354 309 261 234 245 246 249 249 258 269 264 258 253 251 263 260 266 272
261 254 251 262 269 267 252 277 274 284 272 282 289 282 282 278 276 284 271 284 276 287 318 292 273 271 258 261 245 244 241 248 276 280 278 256 248 257 265 267 257 274 274 272
252 287 289 271 269 266 242 239 267 278 293 268 267 272 278 274 279 299 301 279 282 276 269 260 256 276 267 252 253 251 233 233 280 266 261 254 271 266 269 270 269 272 273 274